Weather History for Brookings, OR

Change the Weather History Date:

Tuesday, April 23, 2013

  Actual Average Record
Temperature  
Mean Temperature 71 °F -  
Max Temperature 81 °F 59 °F 81 °F (2013)
Min Temperature 61 °F 43 °F 35 °F (1960)
Cooling Degree Days 6    
Growing Degree Days 21 (Base 50)    
Moisture  
Dew Point 12 °F    
Average Humidity 13    
Maximum Humidity 29    
Minimum Humidity 4    
Precipitation  
Precipitation 0.00 in - - ()
Sea Level Pressure  
Sea Level Pressure 30.05 in    
Wind  
Wind Speed 9 mph (NNE)    
Max Wind Speed 12 mph    
Max Gust Speed -    
Visibility 10 miles    
Events      
Averages and records for this station are not official NWS values.
T = Trace of Precipitation, MM = Missing Value Source: NWS Daily Summary

Daily Weather History Graph

Daily Weather History Graph

Search for Another Location

Airport:

Trip Planner

Search our weather history database for the weather conditions in past years. The results will help you decide how hot, cold, wet, or windy it might be!

Date:

Astronomy

Apr. 23, 2013 Rise Set
Actual Time 6:23 AM PDT 8:07 PM PDT
Civil Twilight 5:54 AM PDT 8:37 PM PDT
Nautical Twilight 5:18 AM PDT 9:13 PM PDT
Astronomical Twilight 4:39 AM PDT 9:52 PM PDT
Moon 6:07 PM PDT (4/23) 4:57 AM PDT (4/23)
Length of Visible Light 14h 43m
Length of Day
13h 43m
Waxing Gibbous, 94% of the Moon is Illuminated
Apr 23
Waxing Gibbous
Apr 25
Full
May 2
Last Quarter
May 9
New
May 17
First Quarter

Hourly Weather History & Observations

Time (PDT) Temp. Dew Point Humidity Pressure Visibility Wind Dir Wind Speed Gust Speed Precip Events Conditions
12:56 AM 63.9 °F 31.1 °F 29% 30.13 in 10.0 mi NNE 10.4 mph - N/A   Clear
1:56 AM 63.9 °F 28.0 °F 26% 30.12 in 10.0 mi NNE 9.2 mph - N/A   Clear
2:56 AM 63.0 °F 25.2 °F 24% 30.10 in 10.0 mi NE 8.1 mph - N/A   Clear
3:56 AM 63.0 °F 22.1 °F 21% 30.09 in 10.0 mi NNE 10.4 mph - N/A   Clear
4:56 AM 61.9 °F 19.0 °F 19% 30.08 in 10.0 mi NNE 9.2 mph - N/A   Clear
5:56 AM 61.9 °F 15.1 °F 16% 30.07 in 10.0 mi NE 9.2 mph - N/A   Clear
6:56 AM 61.9 °F 13.1 °F 15% 30.07 in 10.0 mi NE 8.1 mph - N/A   Clear
7:56 AM 63.0 °F 12.0 °F 14% 30.08 in 10.0 mi NNE 10.4 mph - N/A   Clear
8:56 AM 65.8 °F 13.1 °F 13% 30.08 in 10.0 mi North 8.1 mph - N/A   Clear
9:56 AM 68.9 °F 11.1 °F 11% 30.07 in 10.0 mi NE 8.1 mph - N/A   Clear
10:56 AM 72.9 °F 6.1 °F 7% 30.06 in 10.0 mi NNE 9.2 mph - N/A   Clear
11:56 AM 74.8 °F 3.0 °F 6% 30.06 in 10.0 mi North 9.2 mph - N/A   Clear
12:56 PM 77.9 °F 4.1 °F 6% 30.04 in 10.0 mi Variable 6.9 mph - N/A   Clear
1:56 PM 79.9 °F 1.0 °F 5% 30.02 in 10.0 mi Variable 6.9 mph - N/A   Clear
2:56 PM 81.0 °F 0.1 °F 4% 30.01 in 10.0 mi North 8.1 mph - N/A   Clear
3:56 PM 81.0 °F 1.0 °F 5% 29.99 in 10.0 mi North 8.1 mph - N/A   Clear
4:56 PM 81.0 °F 0.1 °F 4% 29.98 in 10.0 mi Variable 5.8 mph - N/A   Clear
5:56 PM 79.0 °F -0.9 °F 4% 29.98 in 10.0 mi North 9.2 mph - N/A   Clear
6:56 PM 77.0 °F 2.1 °F 5% 29.99 in 10.0 mi North 11.5 mph - N/A   Clear
7:56 PM 73.9 °F 9.1 °F 8% 30.00 in 10.0 mi North 4.6 mph - N/A   Clear
8:56 PM 70.0 °F 17.1 °F 13% 30.02 in 10.0 mi North 8.1 mph - N/A   Clear
9:56 PM 68.0 °F 19.0 °F 15% 30.03 in 10.0 mi North 6.9 mph - N/A   Clear
10:56 PM 64.9 °F 21.0 °F 19% 30.04 in 10.0 mi North 6.9 mph - N/A   Clear
11:56 PM 65.8 °F 19.0 °F 17% 30.04 in 10.0 mi Variable 6.9 mph - N/A   Clear